INTELSAT 36 (IS-36)

Last updated on Wed Sep 17 2025 00:02:49 GMT+0000 (Coordinated Universal Time)

1 41747U 16053A 25259.59725207 .00000000 00000+0 00000+0 0 9996 2 41747 0.0170 134.9664 0001744 201.3773 302.9327 1.00269643 33200
UTC large
Height (km)
Speed (km/s)
/
Latitude / Longitude
Inclination (degrees)
Orbital Period (minutes)
Azimuth
Elevation
Range (km)
Doppler Factor

Next 0 passes for location: London (51.5072 / 0.1276)

Sorry there are no passes over London.